GAP2041 RPVD-RPLL

Flight info

Callsign GAP2041
Flight time 0h 57m
Altitude 36000
Route NANAS6R NANAS B472 IBAGO IBAGO7R
Aircraft A20N/M-SDE2E3FGHIRWXY/LB1

Departure

Time 2026-05-08 07:57
Airport Sibulan Airport (RPVD)

Arrival

Time 2026-05-08 08:55
Airport Ninoy Aquino International Airport (RPLL)
Time Latitude Longitude Altitude Speed Heading
2026-05-08 07:46 9.33331 123.29655 43 ft 0 kts 89°
2026-05-08 07:53 9.33332 123.29657 43 ft 0 kts 75°
2026-05-08 07:54 9.33334 123.29658 43 ft 0 kts 53°
2026-05-08 07:54 9.33345 123.29659 42 ft 1 kts 342°
2026-05-08 07:54 9.33370 123.29628 44 ft 10 kts 292°
2026-05-08 07:54 9.33373 123.29539 47 ft 15 kts 271°
2026-05-08 07:55 9.33405 123.29449 50 ft 12 kts 296°
2026-05-08 07:55 9.33454 123.29411 52 ft 9 kts 328°
2026-05-08 07:55 9.33480 123.29355 52 ft 9 kts 262°
2026-05-08 07:55 9.33458 123.29347 49 ft 0 kts 162°
2026-05-08 07:56 9.33456 123.29350 49 ft 2 kts 137°
2026-05-08 07:56 9.33460 123.29389 52 ft 6 kts 70°
2026-05-08 07:56 9.33461 123.29416 52 ft 0 kts 92°
2026-05-08 07:56 9.33457 123.29503 49 ft 49 kts 93°
2026-05-08 07:57 9.33421 123.30157 29 ft 132 kts 93°
2026-05-08 07:57 9.33346 123.31210 472 ft 156 kts 93°
2026-05-08 07:57 9.33255 123.32313 1354 ft 157 kts 85°
2026-05-08 07:57 9.33613 123.33362 2130 ft 166 kts 53°
2026-05-08 07:58 9.34596 123.34052 2783 ft 185 kts 17°
2026-05-08 07:58 9.35495 123.34105 3064 ft 202 kts 353°
2026-05-08 07:58 9.37185 123.33135 3729 ft 221 kts 320°
2026-05-08 07:58 9.37945 123.32382 3980 ft 240 kts 316°
2026-05-08 07:59 9.39144 123.31095 4470 ft 262 kts 315°
2026-05-08 07:59 9.40443 123.29744 5225 ft 271 kts 317°
2026-05-08 07:59 9.41806 123.28404 6103 ft 276 kts 319°
2026-05-08 07:59 9.43214 123.27073 6956 ft 279 kts 319°
2026-05-08 08:00 9.44656 123.25735 7830 ft 282 kts 320°
2026-05-08 08:00 9.46117 123.24390 8642 ft 287 kts 320°
2026-05-08 08:00 9.47581 123.22990 9474 ft 292 kts 314°
2026-05-08 08:00 9.48836 123.21351 10249 ft 298 kts 306°
2026-05-08 08:01 9.50066 123.19569 10604 ft 320 kts 307°
2026-05-08 08:01 9.51394 123.17656 10837 ft 344 kts 307°
2026-05-08 08:01 9.52817 123.15615 11192 ft 360 kts 307°
2026-05-08 08:01 9.54266 123.13532 11940 ft 364 kts 307°
2026-05-08 08:02 9.55714 123.11452 12677 ft 368 kts 307°
2026-05-08 08:02 9.57197 123.09321 13397 ft 372 kts 307°
2026-05-08 08:02 9.58697 123.07168 14061 ft 376 kts 307°
2026-05-08 08:02 9.60216 123.04991 14664 ft 381 kts 307°
2026-05-08 08:03 9.61766 123.02788 15242 ft 385 kts 309°
2026-05-08 08:03 9.63699 123.00919 15872 ft 384 kts 328°
2026-05-08 08:03 9.66089 122.99746 16441 ft 383 kts 346°
2026-05-08 08:03 9.68707 122.99287 17006 ft 384 kts 357°
2026-05-08 08:04 9.71385 122.99074 17555 ft 388 kts 359°
2026-05-08 08:04 9.74087 122.98890 18143 ft 390 kts 358°
2026-05-08 08:04 9.76809 122.98658 18654 ft 394 kts 355°
2026-05-08 08:04 9.79507 122.98104 19126 ft 400 kts 346°
2026-05-08 08:05 9.81889 122.97275 19508 ft 396 kts 340°
2026-05-08 08:05 9.84402 122.96167 19491 ft 399 kts 339°
2026-05-08 08:05 9.86990 122.95019 19802 ft 407 kts 339°
2026-05-08 08:05 9.89569 122.93879 20319 ft 409 kts 339°
2026-05-08 08:06 9.92186 122.92724 20821 ft 412 kts 339°
2026-05-08 08:06 9.94827 122.91560 21326 ft 414 kts 338°
2026-05-08 08:06 9.97481 122.90389 21802 ft 417 kts 338°
2026-05-08 08:06 10.00147 122.89215 22302 ft 420 kts 338°
2026-05-08 08:07 10.02844 122.88027 22770 ft 423 kts 338°
2026-05-08 08:07 10.05558 122.86831 23232 ft 426 kts 338°
2026-05-08 08:07 10.08282 122.85629 23651 ft 428 kts 338°
2026-05-08 08:07 10.11021 122.84420 24026 ft 431 kts 338°
2026-05-08 08:08 10.13780 122.83202 24407 ft 433 kts 338°
2026-05-08 08:08 10.16554 122.81979 24775 ft 436 kts 338°
2026-05-08 08:08 10.19313 122.80762 25142 ft 438 kts 338°
2026-05-08 08:08 10.22123 122.79522 25500 ft 441 kts 338°
2026-05-08 08:09 10.24945 122.78276 25854 ft 444 kts 338°
2026-05-08 08:09 10.27785 122.77022 26191 ft 446 kts 338°
2026-05-08 08:09 10.30647 122.75758 26527 ft 449 kts 338°
2026-05-08 08:09 10.33519 122.74489 26848 ft 452 kts 337°
2026-05-08 08:10 10.36408 122.73213 27185 ft 454 kts 337°
2026-05-08 08:10 10.39316 122.71928 27519 ft 456 kts 337°
2026-05-08 08:10 10.42231 122.70639 27828 ft 459 kts 337°
2026-05-08 08:10 10.45178 122.69337 28145 ft 461 kts 337°
2026-05-08 08:11 10.48123 122.68036 28463 ft 463 kts 337°
2026-05-08 08:11 10.51088 122.66725 28749 ft 466 kts 337°
2026-05-08 08:11 10.54065 122.65408 29051 ft 468 kts 336°
2026-05-08 08:11 10.57059 122.64084 29344 ft 470 kts 336°
2026-05-08 08:12 10.60075 122.62749 29645 ft 473 kts 336°
2026-05-08 08:12 10.63063 122.61426 29913 ft 475 kts 336°
2026-05-08 08:12 10.66103 122.60080 30183 ft 477 kts 336°
2026-05-08 08:12 10.69153 122.58730 30458 ft 478 kts 336°
2026-05-08 08:13 10.72213 122.57375 30723 ft 481 kts 336°
2026-05-08 08:13 10.75285 122.56014 31040 ft 481 kts 336°
2026-05-08 08:13 10.78359 122.54652 31406 ft 480 kts 336°
2026-05-08 08:13 10.81419 122.53296 31776 ft 479 kts 336°
2026-05-08 08:14 10.84477 122.51941 32156 ft 478 kts 335°
2026-05-08 08:14 10.87519 122.50593 32518 ft 477 kts 335°
2026-05-08 08:14 10.90564 122.49242 32895 ft 475 kts 335°
2026-05-08 08:14 10.93555 122.47916 33243 ft 474 kts 335°
2026-05-08 08:15 10.96571 122.46578 33624 ft 472 kts 335°
2026-05-08 08:15 10.99583 122.45241 33959 ft 470 kts 335°
2026-05-08 08:15 11.02572 122.43915 34313 ft 467 kts 335°
2026-05-08 08:15 11.05545 122.42595 34657 ft 465 kts 334°
2026-05-08 08:16 11.08504 122.41281 34954 ft 463 kts 334°
2026-05-08 08:16 11.11454 122.39971 35236 ft 462 kts 334°
2026-05-08 08:16 11.14391 122.38665 35521 ft 460 kts 334°
2026-05-08 08:16 11.17324 122.37361 35715 ft 459 kts 334°
2026-05-08 08:17 11.20250 122.36061 35799 ft 457 kts 334°
2026-05-08 08:17 11.26031 122.33489 35836 ft 456 kts 334°
2026-05-08 08:18 11.31846 122.30902 35831 ft 455 kts 334°
2026-05-08 08:18 11.33811 122.30028 35836 ft 455 kts 334°
2026-05-08 08:19 11.38130 122.28104 35836 ft 455 kts 334°
2026-05-08 08:19 11.43925 122.25523 35838 ft 455 kts 334°
2026-05-08 08:20 11.49734 122.22935 35832 ft 454 kts 334°
2026-05-08 08:20 11.55520 122.20358 35829 ft 453 kts 334°
2026-05-08 08:21 11.61297 122.17779 35827 ft 453 kts 334°
2026-05-08 08:21 11.67081 122.15198 35833 ft 454 kts 333°
2026-05-08 08:22 11.72869 122.12614 35837 ft 454 kts 333°
2026-05-08 08:22 11.78619 122.10046 35840 ft 454 kts 333°
2026-05-08 08:23 11.84415 122.07456 35829 ft 453 kts 333°
2026-05-08 08:23 11.90180 122.04879 35827 ft 452 kts 333°
2026-05-08 08:24 11.95944 122.02301 35825 ft 452 kts 333°
2026-05-08 08:24 12.01709 121.99721 35826 ft 452 kts 333°
2026-05-08 08:25 12.07465 121.97145 35829 ft 452 kts 333°
2026-05-08 08:25 12.13229 121.94563 35828 ft 452 kts 333°
2026-05-08 08:26 12.18993 121.91980 35832 ft 452 kts 333°
2026-05-08 08:26 12.24760 121.89395 35834 ft 453 kts 333°
2026-05-08 08:27 12.30531 121.86807 35832 ft 453 kts 333°
2026-05-08 08:27 12.36265 121.84234 35834 ft 453 kts 334°
2026-05-08 08:28 12.42051 121.81636 35835 ft 453 kts 334°
2026-05-08 08:28 12.47819 121.79046 35831 ft 453 kts 334°
2026-05-08 08:29 12.53561 121.76465 35830 ft 453 kts 334°
2026-05-08 08:29 12.59337 121.73868 35665 ft 454 kts 334°
2026-05-08 08:29 12.62227 121.72568 35426 ft 454 kts 334°
2026-05-08 08:30 12.65123 121.71265 35192 ft 454 kts 334°
2026-05-08 08:30 12.68018 121.69962 34961 ft 455 kts 334°
2026-05-08 08:30 12.73824 121.67347 34505 ft 457 kts 334°
2026-05-08 08:31 12.76735 121.66036 34280 ft 457 kts 335°
2026-05-08 08:31 12.79651 121.64723 34063 ft 457 kts 335°
2026-05-08 08:31 12.82565 121.63411 33848 ft 458 kts 335°
2026-05-08 08:31 12.85484 121.62095 33499 ft 460 kts 335°
2026-05-08 08:32 12.88424 121.60769 32759 ft 464 kts 335°
2026-05-08 08:32 12.91405 121.59423 31806 ft 470 kts 335°
2026-05-08 08:32 12.94289 121.58122 31081 ft 470 kts 335°
2026-05-08 08:32 12.97274 121.56775 30548 ft 466 kts 335°
2026-05-08 08:33 13.00232 121.55440 29917 ft 463 kts 336°
2026-05-08 08:33 13.03166 121.54116 29330 ft 458 kts 336°
2026-05-08 08:33 13.06064 121.52807 28749 ft 453 kts 336°
2026-05-08 08:33 13.08937 121.51510 28175 ft 448 kts 336°
2026-05-08 08:34 13.11771 121.50230 27600 ft 444 kts 336°
2026-05-08 08:34 13.14584 121.48959 27037 ft 439 kts 336°
2026-05-08 08:34 13.17385 121.47693 26468 ft 436 kts 336°
2026-05-08 08:34 13.20152 121.46442 25888 ft 433 kts 336°
2026-05-08 08:35 13.22869 121.45214 25518 ft 431 kts 336°
2026-05-08 08:35 13.25652 121.43956 24935 ft 432 kts 336°
2026-05-08 08:35 13.28367 121.42728 24363 ft 431 kts 337°
2026-05-08 08:35 13.31100 121.41491 23787 ft 428 kts 337°
2026-05-08 08:36 13.33820 121.40260 23184 ft 426 kts 337°
2026-05-08 08:36 13.36509 121.39042 22655 ft 420 kts 337°
2026-05-08 08:36 13.39173 121.37836 22091 ft 415 kts 337°
2026-05-08 08:36 13.41798 121.36647 21540 ft 410 kts 337°
2026-05-08 08:37 13.44407 121.35465 21003 ft 406 kts 337°
2026-05-08 08:37 13.46923 121.34325 20803 ft 393 kts 338°
2026-05-08 08:37 13.49378 121.33212 20682 ft 379 kts 338°
2026-05-08 08:37 13.51748 121.32137 20557 ft 365 kts 337°
2026-05-08 08:38 13.53934 121.30888 20400 ft 355 kts 326°
2026-05-08 08:38 13.55825 121.29269 20019 ft 354 kts 315°
2026-05-08 08:38 13.57460 121.27374 19567 ft 354 kts 312°
2026-05-08 08:38 13.59077 121.25468 19146 ft 353 kts 313°
2026-05-08 08:39 13.60694 121.23575 18740 ft 352 kts 313°
2026-05-08 08:39 13.62306 121.21692 18332 ft 350 kts 313°
2026-05-08 08:39 13.63912 121.19817 17906 ft 349 kts 313°
2026-05-08 08:39 13.65511 121.17950 17515 ft 346 kts 313°
2026-05-08 08:40 13.67093 121.16102 17106 ft 343 kts 313°
2026-05-08 08:40 13.68663 121.14268 16728 ft 340 kts 313°
2026-05-08 08:40 13.70218 121.12450 16369 ft 337 kts 313°
2026-05-08 08:40 13.71760 121.10646 15955 ft 335 kts 313°
2026-05-08 08:41 13.73296 121.08849 15591 ft 332 kts 313°
2026-05-08 08:41 13.74814 121.07071 15228 ft 330 kts 313°
2026-05-08 08:41 13.76301 121.05331 14817 ft 329 kts 313°
2026-05-08 08:41 13.77815 121.03560 14355 ft 330 kts 313°
2026-05-08 08:42 13.79326 121.01791 14009 ft 328 kts 313°
2026-05-08 08:42 13.80830 121.00039 13648 ft 324 kts 316°
2026-05-08 08:42 13.82598 120.98662 13208 ft 318 kts 336°
2026-05-08 08:42 13.84694 120.98037 12788 ft 311 kts 356°
2026-05-08 08:43 13.86835 120.97815 12374 ft 309 kts 356°
2026-05-08 08:43 13.88974 120.97594 11970 ft 307 kts 356°
2026-05-08 08:43 13.91092 120.97374 11614 ft 305 kts 356°
2026-05-08 08:43 13.93199 120.97153 11225 ft 303 kts 356°
2026-05-08 08:44 13.95293 120.96931 10826 ft 301 kts 356°
2026-05-08 08:44 13.97369 120.96712 10448 ft 299 kts 356°
2026-05-08 08:44 13.99388 120.96500 10068 ft 298 kts 356°
2026-05-08 08:44 14.01419 120.96269 9719 ft 296 kts 352°
2026-05-08 08:45 14.03385 120.95617 9551 ft 289 kts 342°
2026-05-08 08:45 14.05285 120.94899 9301 ft 295 kts 343°
2026-05-08 08:45 14.06570 120.94413 9041 ft 299 kts 342°
2026-05-08 08:45 14.09162 120.93420 8504 ft 300 kts 343°
2026-05-08 08:46 14.11112 120.92663 8118 ft 298 kts 342°
2026-05-08 08:46 14.13047 120.91910 7730 ft 296 kts 342°
2026-05-08 08:46 14.14974 120.91159 7344 ft 295 kts 342°
2026-05-08 08:46 14.16865 120.90422 6963 ft 293 kts 342°
2026-05-08 08:47 14.18772 120.89679 6574 ft 293 kts 342°
2026-05-08 08:47 14.20664 120.88939 6172 ft 294 kts 342°
2026-05-08 08:47 14.21937 120.88442 5904 ft 294 kts 342°
2026-05-08 08:47 14.23849 120.87695 5508 ft 293 kts 342°
2026-05-08 08:48 14.25753 120.86952 5116 ft 292 kts 342°
2026-05-08 08:48 14.27656 120.86213 4725 ft 292 kts 342°
2026-05-08 08:48 14.29562 120.85472 4329 ft 292 kts 342°
2026-05-08 08:48 14.31440 120.84739 4128 ft 284 kts 342°
2026-05-08 08:49 14.33277 120.84021 3778 ft 282 kts 342°
2026-05-08 08:49 14.35127 120.83300 3360 ft 283 kts 342°
2026-05-08 08:49 14.36938 120.82598 3197 ft 272 kts 346°
2026-05-08 08:49 14.38741 120.82404 3073 ft 253 kts 13°
2026-05-08 08:50 14.40264 120.83083 3014 ft 229 kts 44°
2026-05-08 08:50 14.41149 120.84320 3015 ft 209 kts 65°
2026-05-08 08:50 14.41815 120.85628 2943 ft 201 kts 65°
2026-05-08 08:50 14.42473 120.86865 2857 ft 192 kts 63°
2026-05-08 08:51 14.43119 120.88051 2713 ft 188 kts 63°
2026-05-08 08:51 14.43766 120.89217 2462 ft 188 kts 63°
2026-05-08 08:51 14.44411 120.90378 2323 ft 180 kts 63°
2026-05-08 08:51 14.45007 120.91444 2238 ft 164 kts 62°
2026-05-08 08:52 14.45554 120.92424 2154 ft 150 kts 62°
2026-05-08 08:52 14.46070 120.93340 2099 ft 144 kts 63°
2026-05-08 08:52 14.46548 120.94186 1974 ft 131 kts 63°
2026-05-08 08:52 14.47000 120.94992 1684 ft 131 kts 62°
2026-05-08 08:53 14.47463 120.95797 1416 ft 131 kts 62°
2026-05-08 08:53 14.47924 120.96600 1159 ft 127 kts 64°
2026-05-08 08:53 14.48338 120.97375 965 ft 120 kts 65°
2026-05-08 08:53 14.48769 120.98154 806 ft 132 kts 64°
2026-05-08 08:54 14.49237 120.99000 528 ft 136 kts 65°
2026-05-08 08:54 14.49703 120.99842 195 ft 132 kts 66°
2026-05-08 08:54 14.50147 121.00654 65 ft 126 kts 65°
2026-05-08 08:54 14.50499 121.01299 65 ft 77 kts 59°
2026-05-08 08:55 14.50709 121.01673 63 ft 55 kts 59°
2026-05-08 08:55 14.50889 121.01995 68 ft 47 kts 61°
2026-05-08 08:55 14.51057 121.02243 70 ft 22 kts 37°
2026-05-08 08:55 14.51156 121.02310 66 ft 15 kts 14°
2026-05-08 08:56 14.51184 121.02238 62 ft 10 kts 242°
2026-05-08 08:56 14.51128 121.02144 65 ft 20 kts 241°
2026-05-08 08:56 14.51041 121.01991 69 ft 29 kts 240°
2026-05-08 08:56 14.50983 121.01883 65 ft 7 kts 241°
2026-05-08 08:57 14.50947 121.01818 66 ft 13 kts 241°
2026-05-08 08:57 14.50895 121.01724 64 ft 17 kts 238°
2026-05-08 08:57 14.50888 121.01677 62 ft 6 kts 296°
2026-05-08 08:57 14.50929 121.01630 64 ft 12 kts 316°
2026-05-08 08:58 14.51003 121.01553 68 ft 17 kts 314°
2026-05-08 08:58 14.51079 121.01468 63 ft 7 kts 295°
2026-05-08 08:58 14.51056 121.01440 68 ft 7 kts 224°
2026-05-08 08:58 14.51027 121.01408 64 ft 0 kts 226°
2026-05-08 08:59 14.51023 121.01403 65 ft 0 kts 225°